Philadelphia, PA

1:53 PM EST on December 06, 2019 (GMT -0500)
Philadelphia International

Weather History for KPHL - June, 2019

Change the Weather History Date:

Friday, June 7, 2019

  Actual Average Record
Temperature  
Mean Temperature 75 °F 71 °F  
Max Temperature 83 °F 80 °F 98 °F (1925)
Min Temperature 67 °F 61 °F 47 °F (1958)
Degree Days  
Heating Degree Days 0 1  
Month to date heating degree days 1 7  
Since 1 June heating degree days 1 7  
Since 1 July heating degree days 4360 4609  
Cooling Degree Days 10 7  
Month to date cooling degree days 53 41  
Year to date cooling degree days 203 132  
Since 1 June cooling degree days 53 41  
Growing Degree Days 26 (Base 50)    
Moisture  
Dew Point 60 °F    
Average Humidity 65    
Maximum Humidity 84    
Minimum Humidity 45    
Precipitation  
Precipitation 0.00 in 0.13 in 3.50 in (2013)
Month to date precipitation 1.06 0.86  
Year to date precipitation 20.34 17.60  
Snow  
Snow 0.00 in 0.00 in 0.00 in ()
Month to date snowfall 0.0 0.0  
Since 1 June snowfall 0.0 0.0  
Since 1 July snowfall 17.1 22.4  
Snow Depth 0.00 in    
Sea Level Pressure  
Sea Level Pressure 29.91 in    
Wind  
Wind Speed 6 mph (NE)    
Max Wind Speed 13 mph    
Max Gust Speed 23 mph    
Visibility 10 miles    
Events      
T = Trace of Precipitation, MM = Missing Value Source: NWS Daily Summary

Daily Weather History Graph

Daily Weather History Graph

Search for Another Location

Airport or City:

Astronomy

Jun. 07, 2019 Rise Set
Actual Time 5:32 AM EDT 8:27 PM EDT
Civil Twilight 5:00 AM EDT 8:59 PM EDT
Nautical Twilight 4:19 AM EDT 9:40 PM EDT
Astronomical Twilight 3:32 AM EDT 10:27 PM EDT
Moon 9:46 AM EDT (6/7) No Moon Set
Length of Visible Light 15h 59m
Length of Day
14h 54m
Waxing Crescent, 22% of the Moon is Illuminated
Jun 7
Waxing Crescent
Jun 10
First Quarter
Jun 17
Full
Jun 25
Last Quarter
Jul 2
New

Hourly Weather History & Observations

Time (EDT) Temp. Heat Index Dew Point Humidity Pressure Visibility Wind Dir Wind Speed Gust Speed Precip Events Conditions
12:54 AM 73.9 °F - 59.0 °F 59% 29.86 in 10.0 mi NNE 9.2 mph - N/A   Overcast
1:54 AM 73.0 °F - 59.0 °F 61% 29.86 in 10.0 mi NNE 4.6 mph - N/A   Mostly Cloudy
2:54 AM 72.0 °F - 59.0 °F 64% 29.86 in 10.0 mi North 10.4 mph - N/A   Mostly Cloudy
3:54 AM 71.1 °F - 57.9 °F 63% 29.85 in 10.0 mi NNE 6.9 mph - N/A   Mostly Cloudy
4:54 AM 70.0 °F - 57.9 °F 65% 29.86 in 10.0 mi North 8.1 mph - N/A   Mostly Cloudy
5:54 AM 70.0 °F - 57.9 °F 65% 29.89 in 10.0 mi North 5.8 mph - N/A   Mostly Cloudy
6:54 AM 70.0 °F - 57.9 °F 65% 29.90 in 10.0 mi North 6.9 mph - N/A   Overcast
7:54 AM 71.1 °F - 57.9 °F 63% 29.91 in 10.0 mi North 10.4 mph - N/A   Mostly Cloudy
8:54 AM 73.9 °F - 57.9 °F 57% 29.91 in 10.0 mi North 8.1 mph - N/A   Mostly Cloudy
9:54 AM 75.9 °F - 60.1 °F 58% 29.91 in 10.0 mi ENE 8.1 mph - N/A   Mostly Cloudy
10:54 AM 77.0 °F - 60.1 °F 56% 29.92 in 10.0 mi ENE 6.9 mph - N/A   Mostly Cloudy
11:54 AM 79.0 °F - 61.0 °F 54% 29.93 in 10.0 mi East 9.2 mph - N/A   Mostly Cloudy
12:54 PM 80.1 °F 81.1 °F 61.0 °F 52% 29.93 in 10.0 mi East 5.8 mph - N/A   Overcast
1:54 PM 81.0 °F 81.1 °F 57.9 °F 45% 29.92 in 10.0 mi North 8.1 mph 20.7 mph N/A   Overcast
2:54 PM 82.0 °F 82.4 °F 60.1 °F 47% 29.91 in 10.0 mi North 8.1 mph - N/A   Overcast
3:54 PM 81.0 °F 81.3 °F 59.0 °F 47% 29.91 in 10.0 mi NE 5.8 mph - N/A   Overcast
4:54 PM 82.0 °F 82.1 °F 59.0 °F 45% 29.91 in 10.0 mi East 8.1 mph - N/A   Mostly Cloudy
5:54 PM 82.0 °F 82.1 °F 59.0 °F 45% 29.91 in 10.0 mi ESE 5.8 mph - N/A   Mostly Cloudy
6:54 PM 79.0 °F - 61.0 °F 54% 29.92 in 10.0 mi ESE 3.5 mph - N/A   Mostly Cloudy
7:54 PM 77.0 °F - 61.0 °F 58% 29.94 in 10.0 mi East 4.6 mph - N/A   Overcast
8:54 PM 75.0 °F - 64.0 °F 69% 29.95 in 10.0 mi SSE 4.6 mph - N/A   Overcast
9:54 PM 73.0 °F - 64.9 °F 76% 29.98 in 10.0 mi SSE 3.5 mph - N/A   Overcast
10:54 PM 71.1 °F - 64.9 °F 81% 29.99 in 10.0 mi Calm Calm - N/A   Mostly Cloudy
11:54 PM 70.0 °F - 64.0 °F 81% 30.00 in 10.0 mi Calm Calm - N/A   Mostly Cloudy